www.pogodaiklimat.ru

Погода и климат >> Архив погоды >> Грузия >> ???????


АРХИВ ПОГОДЫ в ???????

Время (UTC), дата Ветер
(напр.,м/с)
 
Видим.   Явления Облачность Т
(С)
Тd
(С)
f
(%)
Тe
(С)
Тes
(С)
Комфортность P
(гПа)
Po
(гПа)
Тmin
(С)
Tmax
(С)
R
(мм)
R24
(мм)
S
(см)
00 9.12 С 3 н/о 10/0 600 м
[As op]
+6.4 +3.8 83 +3 +3 по сезону 1019.8 968.2
03 9.12 С 2 н/о слабый дождь 10/0 600 м
[As op]
+5.8 +5.3 97 +3 +3 по сезону 1019.4 967.8 1
06 9.12 штиль 0 20 км {дождь} 10/0 600 м
[As op]
+6.0 +5.1 94 +5 +5 тепло 1020.8 969.1
09 9.12 штиль 0 4000 м дымка 10/0 600 м
[As op]
+7.2 +5.6 90 +6 +7 по сезону 1021.1 969.6
12 9.12 штиль 0 4000 м дымка 10/0 600 м
[As op]
+8.8 +5.3 79 +8 +8 тепло 1020.0 968.9
15 9.12 штиль 0 н/о дымка 10/0 600 м
[As op]
+8.1 +6.1 87 +7 +7 тепло 1020.9 969.5 +8.8 0.8
18 9.12 штиль 0 н/о дымка 10/0 600 м
[As op]
+8.0 +5.8 86 +7 +7 тепло 1021.2 969.8 +8.8 0.8
21 9.12 штиль 0 н/о дымка 10/0 600 м
[As op]
+7.5 +6.7 95 +6 +6 тепло 1021.0 969.6
00 10.12 штиль 0 н/о 10/0 600 м
[As op]
+7.0 +6.5 97 +6 +6 тепло 1020.8 969.3
03 10.12 штиль 0 н/о 6/6 600 м
[Cb calv]
+5.3 +5.1 99 +4 +4 тепло 1020.3 968.5
06 10.12 штиль 0 4000 м дымка 10/0 600 м
[As op]
+6.4 +5.0 91 +5 +6 тепло 1019.8 968.2
09 10.12 В 3 10 км 8/6 600 м
[Sc Ac lent Ci]
+9.0 +2.9 66 +7 +8 тепло 1017.3 966.3
12 10.12 20 км 8/3 600 м
[Sc diur, vesp Ac lent Ci]
+9.8 +2.5 60 1015.9 965.1
15 10.12 штиль 0 н/о 4/3 600 м
[Sc diur, vesp Ci]
+6.5 +4.4 86 +6 +6 тепло 1016.3 964.9 +10.3
18 10.12 штиль 0 н/о ясно +3.8 +3.3 97 +3 +3 по сезону 1016.7 964.9 +10.3
21 10.12 штиль 0 н/о ясно +2.6 +2.1 97 +1 +1 по сезону 1018.1 965.8
00 11.12 штиль 0 н/о ясно +2.6 +1.8 94 +1 +1 по сезону 1018.0 965.7
03 11.12 штиль 0 н/о ясно +2.2 +0.9 91 +1 +1 по сезону 1016.8 964.6
06 11.12 СЗ 2 50 км 4/3 600 м
[Cu hum Ac lent]
+4.1 +0.7 78 +1 +2 по сезону 1015.8 964.0
09 11.12 штиль 0 50 км 9/4 600 м
[Cu hum Ac lent Ci]
+9.3 0.0 52 +9 +11 тепло 1013.3 962.5
12 11.12 Ю 1-1
{3}
н/о н/о +9.3 +3.9 69 +9 +9 тепло 1012.9 961.8
15 11.12 штиль 0 н/о 10/0 600 м
[As op]
+8.5 +3.0 68 +8 +8 тепло 1013.5 962.6 +10.0
18 11.12 штиль 0 н/о 10/0 600 м
[As op]
+7.9 +3.4 73 +7 +7 тепло 1012.5 961.6 +10.0
21 11.12 штиль 0 н/о 8/8 600 м
[Sc diur, vesp]
+6.9 +3.6 79 +6 +6 тепло 1014.3 963.1
00 12.12 штиль 0 н/о 9/9 600 м
[Cu hum]
+9.8 +4.6 70 +9 +9 тепло 1015.8 965.0
03 12.12 штиль 0 н/о 5/5 600 м
[Cu hum]
+6.7 +3.6 81 +6 +6 тепло 1014.6 963.4
06 12.12 штиль 0 50 км 10/0 600 м
[As op]
+7.2 +5.0 86 +6 +7 тепло 1014.0 962.9
09 12.12 штиль 0 20 км слабый дождь 10/0 600 м
[As op]
+7.6 +7.0 96 +7 +8 тепло 1013.0 962.1
12 12.12 штиль 0 4000 м слабый дождь 10/0 600 м
[As op]
+8.6 +8.2 97 +8 +8 тепло 1009.8 959.2
15 12.12 штиль 0 н/о слабый дождь 10/0 600 м
[As op]
+8.0 +7.8 99 +7 +7 тепло 1010.0 959.4 +8.6 3
18 12.12 штиль 0 н/о слабый дождь 10/0 600 м
[As op]
+7.2 +7.2 100 +6 +6 тепло 1010.3 959.3 +8.6 3
21 12.12 штиль 0 50 км дождь ?/? +7.0 +7.0 100 +6 +6 тепло 1012.1 961.0
00 13.12 С 3 н/о {дождь} 10/0 600 м
[As op]
+6.6 +6.4 99 +3 +3 тепло 1012.8 961.4
03 13.12 С 5 н/о слабый дождь 10/0 600 м
[As op]
+5.6 +4.7 94 +1 +1 по сезону 1013.7 962.4 6
06 13.12 З 5 50 км {дождь} 9/6 600 м
[Cu hum Ac lent Ci]
+7.0 +2.1 71 +3 +3 по сезону 1015.2 964.0 6
09 13.12 С 9 50 км 4/4 600 м
[Cu hum]
+9.7 +2.7 62 +6 +6 тепло 1015.3 964.6
12 13.12 СЗ 9 50 км 5/5 600 м
[Cu hum]
+9.2 +0.2 53 +5 +5 по сезону 1017.0 966.0
15 13.12 н/о н/о +6.6 -0.4 61 +1 +1 по сезону 1020.4 968.8 +10.5
18 13.12 С 10 н/о 6/6 600 м
[Cu hum]
+5.7 -0.3 65 -0 -0 по сезону 1022.4 970.5 +10.5
21 13.12 З 7 н/о 3/3 600 м
[Cu hum]
+4.0 0.0 75 -2 -2 по сезону 1024.0 971.8
00 14.12 штиль 0 н/о ясно +2.2 +1.4 94 +1 +1 по сезону 1026.4 973.7
03 14.12 штиль 0 н/о ясно +1.0 +0.7 98 -0 -0 по сезону 1027.8 974.9
06 14.12 штиль 0 50 км 10/4 600 м
[Sc As trans]
+2.9 +0.8 86 +2 +2 по сезону 1027.3 974.8
09 14.12 З 4 50 км 10/5 600 м
[Sc As trans Ci]
+5.8 +0.4 68 +2 +3 по сезону 1026.5 974.4
12 14.12 СВ 3 50 км 10/0 600 м
[As op]
+7.2 0.0 60 +5 +5 по сезону 1025.6 973.8
15 14.12 штиль 0 н/о ясно +4.2 +0.5 77 +3 +3 по сезону 1027.6 975.2 +7.4
18 14.12 З 4 н/о 5/5 600 м
[Cu hum]
+2.6 -0.1 82 -2 -2 по сезону 1028.3 975.5 +7.4
21 14.12 штиль 0 н/о 4/0
[As trans]
+2.0 +0.7 91 +1 +1 по сезону 1028.2 975.4
00 15.12 СЗ 4 н/о 5/3 600 м
[Cu hum As trans]
+2.6 -2.0 72 -2 -2 по сезону 1028.3 975.5
03 15.12 С 4 н/о 8/8 600 м
[Cu hum]
+2.4 -2.9 68 -2 -2 по сезону 1028.1 975.3
06 15.12 С 6 50 км 9/9 600 м
[Cu hum]
+2.6 -3.7 63 -3 -3 прохладно 1028.9 976.1
09 15.12 штиль 0 50 км 9/8 600 м
[Cu hum Ac lent]
+5.8 -1.8 58 +5 +6 по сезону 1028.3 976.1
12 15.12 Ю 4 50 км 10/0 600 м
[As op]
+6.8 -1.1 57 +4 +4 по сезону 1027.8 975.7
15 15.12 С 2 н/о 10/0 600 м
[As op]
+5.5 -0.9 63 +3 +3 по сезону 1028.6 976.4 +7.4
18 15.12 штиль 0 н/о 10/0 600 м
[As op]
+5.0 -0.3 69 +4 +4 тепло 1028.8 976.6 +7.4
21 15.12 штиль 0 н/о 10/0 600 м
[As op]
+4.2 +1.1 80 +3 +3 тепло 1028.2 975.8

 

Местоположение метеостанции ??????? (Грузия): широта 41.70 долгота 44.75 высота над уровнем моря 403 м.

В архиве по умолчанию представлена погода в ??????? за последнюю неделю. Архивные данные за месяц целиком и за предыдущие месяцы, начиная с января 2011 года, Вы можете получить, выбрав интересующий диапазон дат из раскрывающегося списка и нажав кнопку "Ввод!".


*Определитесь, кто Вы:
робот инопланетянин человек

Внимание! Время в таблицах - всемирное. Для получения местного времени необходимо прибавить поправку, которая в ??????? равна 4 ч.

Смотрите также архив погоды в соседних городах и на ближайших метеорологических станциях:

Погода в ???????? (Грузия) (32 км)
Погода в ??????? (Грузия) (58 км)
Погода в ????? (Грузия) (61 км)
Погода в ?????????? (Грузия) (72 км)
Погода в Идйеване (Армения) (98 км)
Погода в Ванадзоре (Армения) (100 км)
Погода в Ашотске (Армения) (116 км)
Погода в Рокском Перевале (Северная Осетия, Россия) (117 км)
Погода в Наре (Северная Осетия, Россия) (125 км)
Погода в ???????? (Грузия) (126 км)

Пояснения к столбцам:

Ветер - указаны скорость ветра в м/с - средняя за 10 мин, порывы в срок и между сроками (в фигурных скобках) и направление, откуда дует ветер: С - северный, СВ - северо-восточный, В - восточный, ЮВ - юго-восточный, Ю - южный, ЮЗ - юго-западный, З - западный, СЗ - северо-западный.
Видимость - горизонтальная дальность видимости в метрах или километрах. При видимости от 1 до 10 км при отсутствии осадков обычно наблюдается дымка, при ухудшении видимости до 1 км и менее - туман. В сухую погоду видимость может ухудшаться дымом, пылью или мглою.
Явления - указаны атмосферные явления, наблюдавшиеся в срок или в последний час перед сроком; фигурными скобками обозначены явления, наблюдавшиеся между сроками (за 1-3 часа до срока); квадратными скобками обозначены град или гололедные отложения с указанием их диаметра в мм.
Облачность - указаны через наклонную черту общая и нижняя облачность в баллах и высота нижней границы облаков в метрах; квадратными скобками обозначены формы облаков: Ci - перистые, Cs - перисто-слоистые, Cc - перисто-кучевые, Ac - высококучевые, As - высокослоистые, Sc - слоисто-кучевые, Ns - слоисто-дождевые, Cu - кучевые, Cb - кучево-дождевые. Подробнее классификацию облаков см. в Атласе облаков (PDF).
T - Температура воздуха - температура, измеренная на высоте 2 м над землей.
Td - Температура точки росы - температура, при понижении до которой содержащийся в воздухе водяной пар достигнет насыщения.
f - Относительная влажность воздуха - влажноcть воздуха, измеренная на высоте 2 м над землей.
Te - Эффективная температура - температура, которую ощущает одетый по сезону человек в тени. Характеристика душности погоды. При расчете учитывается влияние влажности воздуха и скорости ветра на теплоощущения человека.
Tes - Эффективная температура на солнце - температура, которую ощущает человек, с поправкой на солнечный нагрев. Характеристика знойности погоды. Зависит от высоты солнца над горизонтом, облачности и скорости ветра. Ночью, в пасмурную погоду, а также при ветре 12 м/с и более поправка равна нулю.
P - Атмосферное давление - приведенное к уровню моря атмосферное давление.
Po - Атмосферное давление - измеренное на уровне метеостанции атмосферное давление.
Tmin - Минимальная температура - минимум температуры воздуха на высоте 2 м над землей.
Tmax - Максимальная температура - максимум температуры воздуха на высоте 2 м над землей.
R - Количество осадков - Количество выпавших осадков за период времени, мм. При наведении курсора мыши на число - период времени, за который выпало указанное количество осадков.
R24 - Количество осадков - Количество выпавших осадков за 24 часа, мм.
S - Снежный покров - Высота снежного покрова, см. При наведении курсора мыши на число - состояние снежного покрова и степень покрытия местности в баллах.